Temperature
7 7 7 7 7 7 7 7 7 7 7 8 8 8 9 9 9 8 8 8 8 7 7 7 7 7 6 6 6 5 5 5 4 4 4 4 3 3
7 7 7 7 7 7 7 7 7 7 7 7 8 8 8 8 8 8 8 8 7 7 7 7 7 6 6 6 5 5 5 4 4 4 4 3 3 2
6 6 6 7 7 7 7 7 7 7 7 7 7 8 8 8 8 7 7 7 7 7 7 7 6 6 6 5 5 5 4 4 4 3 3 3 3 2
6 6 6 6 6 7 7 7 7 7 7 7 7 7 7 7 7 7 7 7 7 7 6 6 6 6 5 5 5 4 4 4 3 3 3 3 2 2
5 6 6 6 6 6 6 7 6 6 6 6 7 7 7 7 6 6 6 6 6 6 6 6 6 5 5 5 4 4 4 3 3 3 2 2 2 1
5 5 5 6 6 6 6 6 6 6 6 6 6 6 6 6 6 6 6 6 6 6 5 5 5 5 4 4 4 4 3 3 3 2 2 2 2 1
5 5 5 5 5 6 6 6 6 6 6 6 6 6 6 6 6 5 5 5 5 5 5 5 5 4 4 4 3 3 3 3 2 2 2 2 1 1
4 4 5 5 5 5 5 5 5 5 5 5 5 5 6 5 5 5 5 5 5 4 4 4 4 4 4 3 3 3 3 2 2 2 2 1 1 0
4 4 4 4 5 5 5 5 5 5 5 5 5 5 5 5 5 5 5 5 4 4 4 4 4 4 3 3 3 2 2 2 2 1 1 1 0 0
4 4 4 4 4 4 4 4 4 4 4 4 5 5 5 5 5 5 4 4 4 3 4 3 3 3 3 3 2 2 2 1 1 1 1 0 -0 -0
3 3 3 3 3 4 4 4 4 4 4 4 4 4 4 4 4 4 4 3 3 3 3 3 3 3 2 2 2 1 1 1 1 1 0 -0 -0 -1
3 3 3 3 3 3 3 4 4 4 4 4 4 4 4 4 4 4 4 3 3 3 3 3 2 2 2 1 1 1 1 1 0 0 -0 -1 -1 -1
2 3 3 3 3 3 3 3 3 3 3 3 3 3 3 3 3 3 3 3 3 3 3 2 2 2 2 1 1 1 0 0 0 -0 -0 -1 -1 -1
2 2 2 2 3 3 3 3 3 3 3 3 3 3 3 3 3 3 3 3 3 3 2 2 2 2 2 1 0 0 0 -0 -0 -1 -1 -1 -1 -2
2 2 2 2 2 2 2 3 2 2 2 3 3 2 2 2 2 2 2 2 2 2 2 2 2 2 1 1 1 0 0 -0 -1 -1 -1 -1 -2 -2
1 2 2 2 2 2 2 2 2 2 2 2 2 2 2 2 2 2 2 2 1 1 1 1 1 1 1 1 1 0 -0 -0 -1 -1 -1 -2 -2 -2
1 1 1 1 1 1 2 1 1 1 1 2 2 2 2 1 1 1 1 1 1 0 0 0 0 0 0 0 -0 -0 -0 -1 -1 -1 -1 -2 -2 -2
1 1 1 1 1 1 1 1 1 1 1 1 1 1 1 1 1 1 1 1 1 0 0 0 0 -0 -0 -1 -1 -1 -1 -1 -1 -2 -2 -2 -2 -3
1 1 0 0 0 1 1 0 0 1 1 1 1 1 1 1 1 0 0 0 0 -0 -0 -0 -0 -0 -1 -1 -2 -2 -2 -2 -2 -2 -2 -2 -2 -3
0 0 0 0 0 0 0 0 0 0 0 0 0 0 0 0 0 0 -0 -0 -0 -0 -1 -1 -1 -1 -1 -1 -2 -2 -2 -2 -2 -2 -2 -3 -3 -3
-0 -0 -0 -0 -0 -0 -0 -0 0 0 0 0 0 0 0 -0 -0 -0 -0 -0 -0 -1 -1 -1 -1 -2 -2 -2 -2 -3 -3 -3 -3 -3 -3 -3 -3 -3
-1 -1 -0 -0 -1 -0 -0 -0 -0 -0 -0 -0 -0 -0 -0 -0 -1 -0 -0 -1 -1 -1 -1 -2 -2 -2 -2 -2 -2 -2 -3 -3 -3 -3 -3 -3 -3 -3
-1 -1 -1 -1 -1 -1 -1 -1 -0 -0 -1 -1 -1 -1 -1 -1 -1 -1 -1 -1 -1 -1 -2 -2 -2 -2 -2 -2 -2 -3 -3 -3 -4 -4 -4 -4 -4 -4
Wind_Speed
7 7 6 5 5 5 5 5 5 6 6 4 3 5 5 7 9 9 9 12 13 13 12 11 10 9 8 7 6 5 4 5 5 6 7 8 8 9
5 6 6 5 5 5 5 5 5 5 6 4 3 3 4 5 9 9 9 11 13 12 12 11 10 9 8 7 6 5 4 4 5 6 6 7 8 9
5 6 7 6 6 5 5 5 5 4 6 4 3 2 4 4 4 6 8 8 9 12 12 11 10 10 8 7 6 5 4 4 4 5 6 7 8 8
6 6 7 6 7 6 5 6 5 5 5 6 3 2 4 5 5 6 5 6 7 10 11 11 10 10 9 8 6 5 4 4 3 4 5 6 7 8
5 6 6 6 7 5 5 5 5 5 4 5 4 3 3 3 3 3 4 3 5 7 9 10 10 10 9 8 7 5 4 4 3 3 4 5 7 8
4 5 5 6 6 5 4 5 4 4 4 4 4 3 3 2 3 3 3 3 3 4 5 6 8 9 9 8 7 6 5 4 3 3 3 4 5 6
4 5 6 6 6 5 5 5 5 4 4 4 4 3 3 3 4 3 4 2 2 3 3 3 4 4 6 7 7 6 5 4 3 3 3 3 3 5
4 4 4 4 5 6 7 7 8 7 7 6 5 5 5 4 3 3 3 2 2 3 3 3 3 3 3 4 6 6 5 4 3 2 2 2 3 4
3 3 4 3 3 3 4 6 7 10 10 7 7 7 6 5 5 4 4 4 3 3 3 2 2 3 3 4 6 5 5 4 3 2 1 1 2 3
3 4 4 3 3 3 3 3 4 5 7 6 6 6 5 5 6 5 4 2 1 2 2 2 2 1 1 3 6 5 4 3 3 2 1 0 2 3
4 3 3 3 4 3 3 2 3 2 3 4 5 5 5 6 5 4 4 3 1 1 1 2 2 1 1 2 4 5 4 3 3 2 1 0 1 2
3 3 4 4 4 4 3 3 3 3 2 2 2 2 2 3 5 5 6 5 2 2 2 2 2 2 1 1 1 3 3 3 3 1 1 0 1 2
3 3 3 4 5 5 4 4 5 3 2 2 2 2 1 1 2 2 3 4 4 2 4 3 3 2 2 1 1 1 1 1 1 1 1 0 1 2
4 3 3 5 4 4 3 3 4 2 2 2 2 2 2 2 2 2 2 2 2 3 5 5 3 3 3 2 1 1 1 2 1 1 1 0 1 1
3 4 4 4 3 2 2 4 3 2 2 2 3 2 2 3 2 2 3 4 4 3 3 3 4 3 3 3 2 2 1 1 1 1 1 1 1 0
2 2 2 2 1 0 2 2 2 2 2 2 2 2 3 3 3 2 2 3 3 3 4 4 3 4 2 2 3 2 1 1 1 1 1 0 1 0
3 1 0 1 1 1 1 1 1 1 1 2 2 2 3 3 3 3 2 3 2 2 2 3 5 5 3 3 3 2 2 1 2 1 1 1 0 0
2 1 1 2 2 2 2 1 1 2 2 2 3 2 3 3 3 3 3 3 4 3 3 3 3 3 3 4 3 2 2 1 1 2 2 1 0 1
1 1 2 2 2 2 2 2 2 2 2 2 3 3 2 3 4 4 3 4 4 3 3 3 3 3 3 1 2 3 1 2 2 1 1 1 0 1
0 1 2 2 2 2 2 2 2 2 2 2 3 2 3 3 3 4 4 4 4 4 3 2 2 2 3 3 2 1 2 2 2 1 1 1 1 1
1 1 1 2 2 2 2 2 2 3 3 2 2 3 3 3 3 3 4 5 5 4 4 2 2 5 4 4 4 2 2 3 2 2 2 2 2 2
1 1 1 2 2 2 2 2 2 3 3 3 3 2 3 3 4 4 4 5 4 4 3 3 4 4 2 3 4 3 2 3 5 6 5 3 2 1
2 1 1 1 1 2 2 2 3 3 3 3 3 3 3 3 3 3 3 4 5 5 5 5 4 3 3 4 5 4 4 3 3 4 4 7 6 5
Wind_Direction
220 224 233 238 235 234 222 214 223 247 252 239 230 220 201 194 196 199 203 206 206 206 204 203 203 207 208 206 221 235 254 271 287 297 306 311 315 317
224 223 232 236 234 231 222 222 221 227 245 237 234 215 198 202 195 194 200 203 205 203 202 200 199 198 194 195 206 218 240 263 282 291 301 310 315 318
227 228 233 234 236 233 220 218 222 219 238 254 248 219 203 203 198 194 197 201 206 203 203 200 197 192 190 192 200 213 234 259 274 284 299 311 316 317
231 230 235 237 241 234 215 214 218 219 223 240 249 228 219 203 201 198 195 199 201 202 202 199 194 190 191 193 200 207 224 245 256 278 296 310 316 320
238 234 238 240 242 230 214 215 218 223 221 223 239 230 231 201 195 198 187 187 197 199 199 198 193 193 193 194 196 199 214 224 248 274 297 311 317 320
249 245 241 243 232 222 217 216 215 214 209 212 224 216 219 201 173 191 201 196 200 185 194 196 195 195 195 195 195 196 199 212 242 274 295 311 319 322
259 259 257 248 234 225 223 216 210 211 207 213 219 211 209 189 202 204 207 197 204 176 178 192 188 191 195 194 194 193 195 208 227 257 284 303 314 323
256 267 267 262 247 235 231 228 219 214 211 213 220 213 220 209 204 198 190 181 226 188 178 203 175 185 189 187 195 196 196 205 221 241 271 299 320 327
257 267 274 264 258 240 238 237 232 227 223 217 213 215 213 209 194 200 203 198 223 183 152 196 180 195 188 194 200 199 200 203 209 231 246 305 332 338
274 262 259 256 245 235 235 238 240 235 225 219 214 214 207 196 195 197 190 164 102 134 129 181 188 191 179 196 197 197 202 203 206 212 194 325 341 339
288 277 262 255 253 237 221 230 240 240 209 190 187 190 192 189 175 153 152 152 188 196 137 144 161 132 162 197 201 203 201 197 192 184 183 318 352 358
293 283 272 262 267 239 218 209 216 225 199 183 174 162 172 169 166 174 176 176 173 195 186 151 151 124 137 248 201 201 200 202 196 200 209 339 23 49
281 280 267 264 264 253 236 217 208 205 201 178 175 173 155 163 160 156 170 179 181 200 177 153 153 146 144 166 226 192 173 188 188 211 222 239 13 56
269 268 262 265 270 260 237 189 173 177 181 176 174 184 182 180 160 144 131 123 144 169 174 161 156 165 150 147 194 221 207 174 155 160 195 265 343 11
268 269 284 289 298 279 177 165 164 169 166 178 189 197 185 165 144 118 93 94 78 85 131 144 144 153 148 158 161 171 183 211 156 125 140 159 182 117
302 295 293 306 311 185 160 154 163 175 171 174 174 166 147 142 142 136 127 121 96 69 56 76 107 137 137 132 145 160 154 169 166 130 132 131 185 112
293 284 206 176 155 162 154 147 148 156 156 155 146 153 151 143 142 140 134 130 120 126 89 61 56 66 87 125 126 137 132 118 151 134 109 90 335 251
311 181 200 198 195 191 186 178 175 179 169 157 148 148 158 154 144 133 134 136 132 131 126 123 106 84 61 40 49 127 116 99 109 111 92 99 11 348
315 189 196 198 196 189 184 182 187 181 161 155 153 150 146 151 148 145 143 138 132 135 139 143 138 123 120 99 356 20 100 124 105 87 80 76 167 286
267 204 196 189 180 179 182 178 174 166 159 153 152 150 152 153 153 156 156 150 144 137 137 140 149 150 152 155 153 4 46 116 124 108 62 47 20 25
250 223 206 188 182 185 187 186 181 171 162 155 155 158 159 155 156 158 155 146 140 144 152 158 147 120 109 105 99 68 29 45 76 111 98 85 44 37
248 233 220 194 185 182 182 183 166 158 155 159 164 163 160 158 156 153 154 154 151 145 137 129 128 120 99 111 120 118 80 53 60 68 64 66 111 133
246 234 225 192 179 177 184 177 166 165 165 166 167 162 160 156 151 149 151 150 142 135 132 130 121 97 91 111 120 117 108 96 81 72 48 45 58 66
Height
1429 1431 1432 1433 1434 1435 1436 1437 1438 1437 1436 1436 1437 1438 1439 1440 1442 1443 1445 1446 1448 1450 1452 1453 1454 1455 1456 1456 1456 1455 1455 1454 1453 1451 1450 1448 1446 1444
1424 1425 1426 1427 1428 1429 1430 1431 1432 1433 1431 1431 1432 1433 1434 1435 1436 1438 1440 1441 1443 1444 1446 1448 1449 1450 1451 1451 1451 1451 1450 1450 1448 1447 1445 1443 1441 1439
1418 1419 1420 1421 1422 1423 1423 1425 1426 1427 1426 1425 1427 1428 1429 1430 1431 1433 1435 1436 1437 1439 1441 1442 1443 1444 1445 1446 1446 1446 1446 1445 1444 1443 1441 1439 1437 1435
1412 1413 1414 1415 1415 1416 1417 1418 1420 1421 1422 1421 1422 1423 1424 1425 1426 1427 1429 1430 1432 1434 1436 1437 1438 1439 1440 1441 1441 1441 1441 1440 1439 1438 1437 1435 1433 1431
1407 1408 1408 1409 1409 1410 1411 1412 1414 1416 1417 1418 1417 1418 1419 1420 1421 1422 1423 1425 1427 1429 1431 1432 1433 1435 1435 1436 1436 1436 1436 1436 1435 1434 1432 1431 1429 1427
1402 1403 1403 1403 1404 1405 1406 1407 1409 1411 1412 1413 1413 1413 1414 1415 1416 1417 1418 1419 1421 1423 1425 1427 1429 1430 1430 1431 1431 1432 1432 1431 1430 1430 1428 1427 1425 1423
1397 1397 1398 1398 1399 1400 1401 1402 1404 1406 1407 1408 1408 1408 1409 1410 1411 1412 1413 1414 1416 1418 1420 1422 1423 1424 1425 1426 1426 1427 1427 1427 1426 1425 1424 1423 1421 1420
1392 1392 1392 1393 1393 1395 1396 1397 1400 1401 1402 1403 1403 1404 1404 1405 1407 1408 1408 1410 1411 1413 1415 1416 1418 1418 1420 1421 1422 1423 1423 1423 1422 1421 1420 1419 1418 1416
1387 1387 1387 1388 1389 1390 1391 1392 1394 1395 1397 1398 1398 1399 1400 1401 1402 1403 1404 1405 1406 1408 1410 1411 1413 1413 1415 1417 1418 1419 1419 1419 1418 1418 1417 1416 1414 1413
1383 1383 1383 1383 1384 1385 1386 1387 1388 1389 1391 1393 1394 1395 1396 1397 1398 1400 1401 1402 1403 1405 1407 1407 1408 1410 1411 1413 1414 1415 1415 1415 1414 1414 1414 1413 1412 1410
1379 1379 1379 1379 1380 1381 1382 1382 1383 1384 1386 1388 1390 1391 1392 1394 1394 1396 1396 1397 1398 1400 1402 1403 1404 1406 1408 1409 1411 1411 1411 1411 1411 1411 1411 1410 1409 1408
1374 1375 1375 1376 1376 1377 1378 1378 1379 1380 1382 1383 1385 1387 1388 1389 1390 1392 1393 1393 1394 1396 1398 1400 1401 1402 1404 1406 1407 1408 1408 1408 1409 1409 1408 1408 1407 1406
1370 1370 1371 1371 1372 1373 1374 1374 1375 1377 1378 1380 1381 1382 1383 1385 1386 1388 1389 1390 1391 1392 1394 1396 1397 1398 1400 1401 1403 1405 1405 1406 1406 1406 1406 1405 1405 1404
1366 1366 1366 1367 1368 1369 1369 1370 1372 1374 1375 1376 1377 1378 1379 1381 1382 1384 1385 1387 1388 1390 1391 1393 1394 1395 1396 1397 1399 1401 1402 1403 1403 1403 1403 1403 1403 1402
1362 1362 1362 1363 1364 1364 1365 1367 1369 1370 1371 1372 1373 1374 1376 1377 1379 1380 1381 1383 1385 1387 1389 1390 1392 1393 1394 1394 1396 1397 1398 1400 1400 1401 1401 1401 1401 1400
1357 1357 1358 1359 1360 1361 1362 1364 1366 1367 1368 1369 1370 1372 1373 1374 1375 1377 1378 1380 1382 1384 1386 1388 1389 1391 1392 1393 1394 1395 1396 1397 1398 1399 1399 1399 1399 1399
1353 1353 1354 1355 1356 1358 1359 1361 1363 1364 1366 1367 1368 1369 1370 1371 1372 1374 1376 1378 1379 1381 1383 1385 1387 1389 1390 1391 1392 1393 1394 1395 1396 1397 1397 1398 1398 1398
1350 1350 1350 1352 1353 1355 1357 1358 1360 1362 1363 1364 1365 1366 1367 1368 1370 1372 1374 1375 1377 1378 1380 1382 1384 1386 1389 1390 1392 1392 1393 1394 1395 1396 1396 1396 1396 1397
1347 1347 1348 1350 1351 1353 1355 1356 1358 1360 1361 1362 1363 1364 1365 1366 1368 1369 1371 1373 1375 1377 1379 1381 1382 1384 1385 1387 1390 1392 1392 1393 1394 1394 1395 1396 1396 1396
1345 1346 1347 1348 1349 1351 1353 1354 1356 1357 1359 1360 1361 1362 1363 1365 1366 1368 1370 1371 1373 1375 1377 1379 1381 1382 1384 1386 1388 1390 1391 1392 1393 1394 1394 1395 1396 1396
1344 1344 1345 1347 1348 1349 1351 1352 1353 1355 1356 1358 1359 1360 1362 1363 1365 1366 1368 1370 1371 1373 1375 1378 1380 1383 1384 1386 1388 1389 1391 1392 1394 1394 1394 1394 1395 1394
1342 1342 1343 1345 1346 1347 1348 1349 1350 1352 1354 1355 1357 1358 1360 1362 1363 1365 1367 1368 1370 1372 1374 1377 1379 1382 1384 1385 1386 1388 1390 1392 1393 1395 1395 1396 1396 1395
1340 1340 1341 1342 1343 1344 1346 1347 1348 1350 1352 1353 1355 1357 1359 1360 1362 1364 1366 1367 1369 1371 1373 1375 1378 1381 1383 1384 1386 1388 1390 1392 1393 1394 1395 1396 1397 1397